Torna al catalogo

COSMOS 1275 DEB

AttivoPO
NORAD 12676·DEBRIS·🇷🇺 Russia

Lanciato Jun 4, 1981 da Plesetsk Cosmodrome

Loading…

Prossimi Passaggi (prossime 24 ore)

TLE

AggiornatoSource: Space-Track

Epoca: Sep 14, 2026, 09:49 UTC

1 12676U 81053AG  26257.40906337  .00000373  00000-0  30396-3 0  9990
2 12676  82.9423  53.1207 0043416 203.6434 185.2276 13.86894894273092

Traccia COSMOS 1275 DEB in tempo reale con AllMySat

Download on the App Store